Regional Weather Roundup
Issued by NWS Newport/Morehead, NC

Current Version | Previous Version | Text Only | Print | Product List | Glossary On
Versions: 1 2 3 4 5 6 7 8 9 10 11 12 13 14 15 16 17 18 19 20 21 22 23 24 25 26 27 28 29 30 31 32 33 34 35 36 37 38 39 40 41 42 43 44 45 46 47 48 49 50
000
ASUS42 KMHX 011222
RWRMHX
WEATHER ROUNDUP FOR EASTERN NORTH CAROLINA
NATIONAL WEATHER SERVICE NEWPORT/MOREHEAD CITY NC
800 AM EDT WED OCT 01 2014

NOTE: "FAIR" INDICATES FEW OR NO CLOUDS BELOW 12,000 FEET
WITH NO SIGNIFICANT WEATHER AND/OR OBSTRUCTIONS TO VISIBILITY

NCZ015>017-031-032-045>047-102-103-011300-
NORTH COAST

CITY           SKY/WX    TMP DP  RH WIND       PRES   REMARKS
EDENTON        FOG       61  61  99 N5        29.97R VSB 1
ELIZABETH CITY SUNNY     66  64  93 N7        29.96R
KITTY HAWK     SUNNY     70  64  81 N7        29.94R
MANTEO         SUNNY     69  64  82 N8        29.95R

$$

NCZ045>047-081-094-103-104-011300-
CENTRAL COAST

CITY           SKY/WX    TMP DP  RH WIND       PRES   REMARKS
FRISCO         MOSUNNY   68  66  93 NE9       29.92R
SWANQUARTER      N/A     66 N/A N/A N1        29.91S

$$

NCZ095-097-098-100-101-011300-
SOUTHERN COAST

CITY           SKY/WX    TMP DP  RH WIND       PRES   REMARKS
BEAUFORT       MOSUNNY   67  65  93 N5        29.94
CEDAR ISLAND     N/A     70 N/A N/A N15       29.97S
JACKSONVILLE   CLOUDY    63  62  97 N5        29.96R FOG
NEWPORT        NOT AVBL
PINEY ISLAND   SUNNY     71  66  84 N10       29.94R HAZE
WILMINGTON     SUNNY     63  62  97 NE7       29.95R FOG


$$

NCZ011>013-027>030-043-044-078>080-089-090>093-098-011300-
COASTAL PLAIN

CITY           SKY/WX    TMP DP  RH WIND       PRES   REMARKS
AHOSKIE        FOG       58  58  98 CALM      29.98S VSB 1/4
CLINTON        FOG       61  61 100 CALM      29.98R VSB 1/4
ELIZABETHTOWN  FOG       59  59 100 CALM      29.97R VSB 1/4
GOLDSBORO      PTCLDY    61  61 100 CALM      29.96R FOG
GREENVILLE     LGT RAIN  59  59 100 CALM      29.98S
HAVELOCK       CLOUDY    67  65  93 NE7       29.96R
KENANSVILLE    FOG       61  61 100 CALM      29.98S VSB<1/4
KINSTON        FOG       61  61 100 CALM      29.97R VSB 1/2
NEW BERN       CLOUDY    65  63  93 N3        29.97R FOG
RICHLANDS      CLOUDY    63  59  88 N5        29.97R VSB 1/2
ROANOKE RAPIDS NOT AVBL
ROCKY MOUNT    FOG       59  59 100 N5        29.98R VSB<1/4
WASHINGTON     SUNNY     61  60  97 CALM      29.97R
WHITEVILLE     MOCLDY    62  61  96 CALM      29.97R FOG

$$

AMZ130-135-150-152-154-156-158-170-250-252-270-ANZ085-086-088-633-658-670-011300-
MARINE OBSERVATIONS

STATION/POSITION TIME  TEMP    WIND        PRES    WAVE   SWELL
                       AIR SEA DIR/SP/G            HT/PER HT/PER
                 (UTC) (F)     (DEG/KT/KT) (MB)    (FT/S) (FT/S)
CHESAPEAKE LIGHT 1200   69      20/ 12/ 13 1014.5
BUOY 44014       1200   69 71   10/ 14/ 16 1012.7    3/ 5   2/13
DUCK             1200   70 72  360/ 14/ 16 1013.1
2E DUCK          1200                        N/A     3/ 4
OREGON INLET     1200   70 74  360/  9/ 13 1013.4
BUOY 44095       1200      73                N/A     4/ 4   2/13
20E OREGON INLET NOT AVBL
HATTERAS CG      1200   71 73   20/ 14/ 16 1013.7
DIAMOND BUOY     1200   73     360/ 16/ 17 1012.5    4/ 6   2/13
CAPE LOOKOUT     1200   69      10/ 10/ 12 1013.5
BEAUFORT LAB     1200   67 74   10/  7/  8 1013.3
30 SE NEW RIVER  1200   72 79   20/ 16/ 19 1013.0    3/ 5   2/ 7
5 SE WRIGHTSVILL 1200   67 76   20/ 12/ 14   N/A
BUOY 41002       1057   77 80   20/ 12/ 14 1010.9    3/ 7   3/ 7
BUOY 41004       1200   77 81   10/  8/ 12 1013.3    3/ 5   2/ 5

$$


USA.gov is the U.S. government's official web portal to all federal, state and local government web resources and services.